Time,TemperatureF,DewpointF,PressureIn,WindDirection,WindDirectionDegrees,WindSpeedMPH,WindSpeedGustMPH,Humidity,HourlyPrecipIn,Conditions,Clouds,dailyrainin,SoftwareType,DateUTC
2013-05-22 00:01:00,70.0,66.3,29.61,North,359,0.0,0.0,88,0.00,,---,0.47,VWS V14.01,2013-05-22 04:01:00,
2013-05-22 00:06:00,70.8,66.4,29.61,North,359,0.0,0.0,86,0.00,,---,0.47,VWS V14.01,2013-05-22 04:06:00,
2013-05-22 00:11:00,71.0,66.3,29.61,North,359,0.0,0.0,85,0.00,,---,0.00,VWS V14.01,2013-05-22 04:11:00,
2013-05-22 00:16:00,71.1,66.4,29.61,North,359,0.0,0.0,85,0.00,,---,0.00,VWS V14.01,2013-05-22 04:16:00,
2013-05-22 00:21:00,71.1,66.4,29.60,North,359,0.0,0.0,85,0.00,,---,0.00,VWS V14.01,2013-05-22 04:21:00,
2013-05-22 00:26:00,70.6,66.2,29.60,North,359,0.0,0.0,86,0.00,,---,0.00,VWS V14.01,2013-05-22 04:26:00,
2013-05-22 00:31:00,69.9,65.9,29.60,North,359,0.0,0.0,87,0.00,,---,0.00,VWS V14.01,2013-05-22 04:31:00,
2013-05-22 00:36:00,69.7,66.0,29.60,North,359,0.0,0.0,88,0.00,,---,0.00,VWS V14.01,2013-05-22 04:36:00,
2013-05-22 00:41:00,69.9,65.9,29.60,North,359,0.0,0.0,87,0.00,,---,0.00,VWS V14.01,2013-05-22 04:41:00,
2013-05-22 00:46:00,69.8,65.8,29.60,North,359,0.0,0.0,87,0.00,,---,0.00,VWS V14.01,2013-05-22 04:46:00,
2013-05-22 00:51:00,69.7,65.7,29.60,North,359,0.0,0.0,87,0.00,,---,0.00,VWS V14.01,2013-05-22 04:51:00,
2013-05-22 00:56:00,69.6,65.6,29.60,North,359,0.0,0.0,87,0.00,,---,0.00,VWS V14.01,2013-05-22 04:56:00,
2013-05-22 01:01:00,69.4,65.7,29.60,North,359,0.0,0.0,88,0.00,,---,0.00,VWS V14.01,2013-05-22 05:01:00,
2013-05-22 01:06:00,69.2,65.5,29.60,North,359,0.0,0.0,88,0.00,,---,0.00,VWS V14.01,2013-05-22 05:06:00,
2013-05-22 01:11:00,69.0,65.6,29.60,North,359,0.0,0.0,89,0.00,,---,0.00,VWS V14.01,2013-05-22 05:11:00,
2013-05-22 01:16:00,69.0,65.3,29.60,North,359,0.0,0.0,88,0.00,,---,0.00,VWS V14.01,2013-05-22 05:16:00,
2013-05-22 01:21:00,68.9,65.5,29.59,North,359,0.0,0.0,89,0.00,,---,0.00,VWS V14.01,2013-05-22 05:21:00,
2013-05-22 01:26:00,69.0,65.6,29.59,North,359,0.0,0.0,89,0.00,,---,0.00,VWS V14.01,2013-05-22 05:26:00,
2013-05-22 01:31:00,69.1,65.4,29.59,North,359,0.0,0.0,88,0.00,,---,0.00,VWS V14.01,2013-05-22 05:31:00,
2013-05-22 01:36:00,69.2,65.5,29.59,North,359,0.0,0.0,88,0.00,,---,0.00,VWS V14.01,2013-05-22 05:36:00,
2013-05-22 01:41:00,69.2,65.5,29.59,North,359,0.0,0.0,88,0.00,,---,0.00,VWS V14.01,2013-05-22 05:41:00,
2013-05-22 01:46:00,69.3,65.6,29.59,North,359,0.0,0.0,88,0.00,,---,0.00,VWS V14.01,2013-05-22 05:46:00,
2013-05-22 01:51:00,69.4,65.7,29.59,North,359,0.0,0.0,88,0.00,,---,0.00,VWS V14.01,2013-05-22 05:51:00,
2013-05-22 01:56:00,69.3,65.6,29.59,North,359,0.0,0.0,88,0.00,,---,0.00,VWS V14.01,2013-05-22 05:56:00,
2013-05-22 02:01:00,69.3,65.6,29.59,North,359,0.0,0.0,88,0.00,,---,0.00,VWS V14.01,2013-05-22 06:01:00,
2013-05-22 02:06:00,69.3,65.6,29.59,North,359,0.0,0.0,88,0.00,,---,0.00,VWS V14.01,2013-05-22 06:06:00,
2013-05-22 02:11:00,69.2,65.5,29.59,North,359,0.0,0.0,88,0.00,,---,0.00,VWS V14.01,2013-05-22 06:11:00,
2013-05-22 02:16:00,69.2,65.5,29.59,North,359,0.0,0.0,88,0.00,,---,0.00,VWS V14.01,2013-05-22 06:16:00,
2013-05-22 02:21:00,69.3,65.6,29.59,North,359,0.0,0.0,88,0.00,,---,0.00,VWS V14.01,2013-05-22 06:21:00,
2013-05-22 02:26:00,69.2,65.5,29.59,North,359,0.0,0.0,88,0.00,,---,0.00,VWS V14.01,2013-05-22 06:26:00,
2013-05-22 02:31:00,69.2,65.8,29.59,North,359,0.0,0.0,89,0.00,,---,0.00,VWS V14.01,2013-05-22 06:31:00,
2013-05-22 02:36:00,69.2,65.5,29.59,North,359,0.0,0.0,88,0.00,,---,0.00,VWS V14.01,2013-05-22 06:36:00,
2013-05-22 02:41:00,69.2,65.5,29.59,North,359,0.0,0.0,88,0.00,,---,0.00,VWS V14.01,2013-05-22 06:41:00,
2013-05-22 02:46:00,69.2,65.5,29.59,North,359,0.0,0.0,88,0.00,,---,0.00,VWS V14.01,2013-05-22 06:46:00,
2013-05-22 02:51:00,69.2,65.5,29.59,North,359,0.0,0.0,88,0.00,,---,0.00,VWS V14.01,2013-05-22 06:51:00,
2013-05-22 02:56:00,69.1,65.7,29.59,North,359,0.0,0.0,89,0.00,,---,0.00,VWS V14.01,2013-05-22 06:56:00,
2013-05-22 03:01:00,69.1,65.4,29.59,North,359,0.0,0.0,88,0.00,,---,0.00,VWS V14.01,2013-05-22 07:01:00,
2013-05-22 03:06:00,68.9,65.5,29.59,North,359,0.0,0.0,89,0.00,,---,0.00,VWS V14.01,2013-05-22 07:06:00,
2013-05-22 03:11:00,68.8,65.4,29.59,North,359,0.0,0.0,89,0.00,,---,0.00,VWS V14.01,2013-05-22 07:11:00,
2013-05-22 03:16:00,68.8,65.4,29.59,North,359,0.0,0.0,89,0.00,,---,0.00,VWS V14.01,2013-05-22 07:16:00,
2013-05-22 03:21:00,68.7,65.7,29.59,North,359,0.0,0.0,90,0.00,,---,0.00,VWS V14.01,2013-05-22 07:21:00,
2013-05-22 03:26:00,68.7,65.7,29.59,North,359,0.0,0.0,90,0.00,,---,0.00,VWS V14.01,2013-05-22 07:26:00,
2013-05-22 03:31:00,68.8,65.8,29.59,North,359,0.0,0.0,90,0.00,,---,0.00,VWS V14.01,2013-05-22 07:31:00,
2013-05-22 03:36:00,68.7,65.7,29.59,North,359,0.0,0.0,90,0.00,,---,0.00,VWS V14.01,2013-05-22 07:36:00,
2013-05-22 03:41:00,68.7,65.7,29.59,North,359,0.0,0.0,90,0.00,,---,0.00,VWS V14.01,2013-05-22 07:41:00,
2013-05-22 03:46:00,68.8,65.8,29.59,North,359,0.0,0.0,90,0.00,,---,0.00,VWS V14.01,2013-05-22 07:46:00,
2013-05-22 03:51:00,68.8,65.8,29.59,North,359,0.0,0.0,90,0.00,,---,0.00,VWS V14.01,2013-05-22 07:51:00,
2013-05-22 03:56:00,68.8,65.4,29.58,North,359,0.0,0.0,89,0.00,,---,0.00,VWS V14.01,2013-05-22 07:56:00,
2013-05-22 04:01:00,68.8,65.8,29.58,North,359,0.0,0.0,90,0.00,,---,0.00,VWS V14.01,2013-05-22 08:01:00,
2013-05-22 04:06:00,68.8,65.8,29.58,North,359,0.0,1.0,90,0.00,,---,0.00,VWS V14.01,2013-05-22 08:06:00,
2013-05-22 04:11:00,68.9,65.8,29.57,North,359,0.0,1.0,90,0.00,,---,0.00,VWS V14.01,2013-05-22 08:11:00,
2013-05-22 04:16:00,68.8,65.4,29.57,North,359,0.0,0.0,89,0.00,,---,0.00,VWS V14.01,2013-05-22 08:16:00,
2013-05-22 04:21:00,68.7,65.7,29.57,North,359,0.0,0.0,90,0.00,,---,0.00,VWS V14.01,2013-05-22 08:21:00,
2013-05-22 04:26:00,68.6,65.6,29.57,North,359,0.0,0.0,90,0.00,,---,0.00,VWS V14.01,2013-05-22 08:26:00,
2013-05-22 04:31:00,68.7,65.3,29.57,North,359,0.0,0.0,89,0.00,,---,0.00,VWS V14.01,2013-05-22 08:31:00,
2013-05-22 04:36:00,68.7,65.7,29.57,North,359,0.0,0.0,90,0.00,,---,0.00,VWS V14.01,2013-05-22 08:36:00,
2013-05-22 04:41:00,68.6,65.6,29.57,North,359,0.0,0.0,90,0.00,,---,0.00,VWS V14.01,2013-05-22 08:41:00,
2013-05-22 04:46:00,68.6,65.6,29.57,North,359,0.0,0.0,90,0.00,,---,0.00,VWS V14.01,2013-05-22 08:46:00,
2013-05-22 04:51:00,68.6,65.6,29.57,North,359,0.0,0.0,90,0.00,,---,0.00,VWS V14.01,2013-05-22 08:51:00,
2013-05-22 04:56:00,68.5,65.5,29.57,North,359,0.0,0.0,90,0.00,,---,0.00,VWS V14.01,2013-05-22 08:56:00,
2013-05-22 05:01:00,68.3,65.6,29.57,North,359,0.0,0.0,91,0.00,,---,0.00,VWS V14.01,2013-05-22 09:01:00,
2013-05-22 05:06:00,68.0,65.6,29.57,North,359,0.0,0.0,92,0.00,,---,0.00,VWS V14.01,2013-05-22 09:06:00,
2013-05-22 05:11:00,67.8,65.4,29.57,North,359,0.0,0.0,92,0.00,,---,0.00,VWS V14.01,2013-05-22 09:11:00,
2013-05-22 05:16:00,67.8,65.4,29.57,North,359,0.0,0.0,92,0.00,,---,0.00,VWS V14.01,2013-05-22 09:16:00,
2013-05-22 05:21:00,67.7,65.3,29.57,North,359,0.0,0.0,92,0.00,,---,0.00,VWS V14.01,2013-05-22 09:21:00,
2013-05-22 05:26:00,67.7,65.3,29.57,North,359,0.0,0.0,92,0.00,,---,0.00,VWS V14.01,2013-05-22 09:26:00,
2013-05-22 05:31:00,67.6,65.2,29.57,North,359,0.0,0.0,92,0.00,,---,0.00,VWS V14.01,2013-05-22 09:31:00,
2013-05-22 05:36:00,67.6,65.2,29.57,North,359,0.0,0.0,92,0.00,,---,0.00,VWS V14.01,2013-05-22 09:36:00,
2013-05-22 05:41:00,67.5,65.1,29.57,North,359,0.0,0.0,92,0.00,,---,0.00,VWS V14.01,2013-05-22 09:41:00,
2013-05-22 05:46:00,67.4,65.0,29.57,North,359,0.0,0.0,92,0.00,,---,0.00,VWS V14.01,2013-05-22 09:46:00,
2013-05-22 05:51:00,67.4,65.0,29.57,North,359,0.0,0.0,92,0.00,,---,0.00,VWS V14.01,2013-05-22 09:51:00,
2013-05-22 05:56:00,67.2,64.8,29.57,North,359,0.0,0.0,92,0.00,,---,0.00,VWS V14.01,2013-05-22 09:56:00,
2013-05-22 06:01:00,67.2,64.8,29.57,North,359,0.0,0.0,92,0.00,,---,0.00,VWS V14.01,2013-05-22 10:01:00,
2013-05-22 06:06:00,67.0,64.6,29.57,North,359,0.0,0.0,92,0.00,,---,0.00,VWS V14.01,2013-05-22 10:06:00,
2013-05-22 06:11:00,66.9,64.5,29.57,North,359,0.0,0.0,92,0.00,,---,0.00,VWS V14.01,2013-05-22 10:11:00,
2013-05-22 06:16:00,66.6,64.5,29.57,North,359,0.0,0.0,93,0.00,,---,0.00,VWS V14.01,2013-05-22 10:16:00,
2013-05-22 06:21:00,66.5,64.4,29.57,North,359,0.0,0.0,93,0.00,,---,0.00,VWS V14.01,2013-05-22 10:21:00,
2013-05-22 06:26:00,66.3,64.2,29.57,North,359,0.0,0.0,93,0.01,,---,0.01,VWS V14.01,2013-05-22 10:26:00,
2013-05-22 06:31:00,66.2,64.1,29.57,North,356,0.0,0.0,93,0.03,,---,0.03,VWS V14.01,2013-05-22 10:31:00,
2013-05-22 06:36:00,66.2,64.4,29.57,North,355,0.0,0.0,94,0.05,,---,0.05,VWS V14.01,2013-05-22 10:36:00,
2013-05-22 06:41:00,66.3,64.5,29.57,North,353,0.0,0.0,94,0.06,,---,0.06,VWS V14.01,2013-05-22 10:41:00,
2013-05-22 06:46:00,66.3,64.5,29.57,North,352,0.0,1.0,94,0.08,,---,0.08,VWS V14.01,2013-05-22 10:46:00,
2013-05-22 06:51:00,66.2,64.1,29.57,North,352,0.0,0.0,93,0.09,,---,0.09,VWS V14.01,2013-05-22 10:51:00,
2013-05-22 06:56:00,66.3,64.5,29.57,North,351,0.0,1.0,94,0.11,,---,0.11,VWS V14.01,2013-05-22 10:56:00,
2013-05-22 07:01:00,66.3,64.5,29.57,North,351,0.0,0.0,94,0.12,,---,0.12,VWS V14.01,2013-05-22 11:01:00,
2013-05-22 07:06:00,66.5,64.7,29.57,North,350,0.0,0.0,94,0.14,,---,0.14,VWS V14.01,2013-05-22 11:06:00,
2013-05-22 07:11:00,66.7,64.9,29.58,North,350,0.0,0.0,94,0.14,,---,0.14,VWS V14.01,2013-05-22 11:11:00,
2013-05-22 07:16:00,66.8,65.0,29.58,North,350,0.0,0.0,94,0.14,,---,0.14,VWS V14.01,2013-05-22 11:16:00,
2013-05-22 07:21:00,66.7,64.9,29.58,North,350,0.0,0.0,94,0.14,,---,0.14,VWS V14.01,2013-05-22 11:21:00,
2013-05-22 07:26:00,66.7,64.9,29.58,North,350,0.0,1.0,94,0.14,,---,0.14,VWS V14.01,2013-05-22 11:26:00,
2013-05-22 07:31:00,66.7,65.2,29.58,North,350,0.0,0.0,95,0.12,,---,0.14,VWS V14.01,2013-05-22 11:31:00,
2013-05-22 07:36:00,66.8,65.3,29.58,North,350,0.0,0.0,95,0.11,,---,0.14,VWS V14.01,2013-05-22 11:36:00,
2013-05-22 07:41:00,66.8,65.3,29.57,North,350,0.0,0.0,95,0.09,,---,0.14,VWS V14.01,2013-05-22 11:41:00,
2013-05-22 07:46:00,66.7,65.2,29.57,North,350,0.0,0.0,95,0.08,,---,0.14,VWS V14.01,2013-05-22 11:46:00,
2013-05-22 07:51:00,66.8,65.3,29.57,North,350,0.0,0.0,95,0.06,,---,0.14,VWS V14.01,2013-05-22 11:51:00,
2013-05-22 07:56:00,66.8,65.0,29.57,North,350,0.0,0.0,94,0.05,,---,0.14,VWS V14.01,2013-05-22 11:56:00,
2013-05-22 08:01:00,66.9,65.1,29.57,North,350,0.0,1.0,94,0.03,,---,0.14,VWS V14.01,2013-05-22 12:01:00,
2013-05-22 08:06:00,67.0,65.2,29.57,North,350,0.0,0.0,94,0.01,,---,0.14,VWS V14.01,2013-05-22 12:06:00,
2013-05-22 08:11:00,67.0,65.2,29.57,North,350,0.0,0.0,94,0.00,,---,0.14,VWS V14.01,2013-05-22 12:11:00,
2013-05-22 08:16:00,67.0,64.9,29.57,North,350,0.0,0.0,93,0.00,,---,0.14,VWS V14.01,2013-05-22 12:16:00,
2013-05-22 08:21:00,67.0,64.9,29.57,North,350,0.0,1.0,93,0.00,,---,0.14,VWS V14.01,2013-05-22 12:21:00,
2013-05-22 08:26:00,67.1,65.0,29.57,North,350,0.0,0.0,93,0.00,,---,0.14,VWS V14.01,2013-05-22 12:26:00,
2013-05-22 08:31:00,67.1,65.0,29.57,North,350,0.0,0.0,93,0.00,,---,0.14,VWS V14.01,2013-05-22 12:31:00,
2013-05-22 08:36:00,67.2,65.1,29.57,North,350,0.0,1.0,93,0.00,,---,0.14,VWS V14.01,2013-05-22 12:36:00,
2013-05-22 08:41:00,67.2,65.1,29.57,North,350,0.0,1.0,93,0.00,,---,0.14,VWS V14.01,2013-05-22 12:41:00,
2013-05-22 08:46:00,67.1,64.7,29.57,North,350,0.0,2.0,92,0.00,,---,0.14,VWS V14.01,2013-05-22 12:46:00,
2013-05-22 08:51:00,67.1,64.7,29.57,North,350,0.0,1.0,92,0.00,,---,0.14,VWS V14.01,2013-05-22 12:51:00,
2013-05-22 08:56:00,67.1,64.7,29.57,North,352,0.0,4.0,92,0.00,,---,0.14,VWS V14.01,2013-05-22 12:56:00,
2013-05-22 09:01:00,67.1,64.7,29.57,North,352,0.0,0.0,92,0.00,,---,0.14,VWS V14.01,2013-05-22 13:01:00,
2013-05-22 09:05:00,67.1,64.7,29.57,NNE,24,0.0,4.0,92,0.00,,---,0.14,VWS V14.01,2013-05-22 13:05:00,
2013-05-22 09:10:00,67.2,64.8,29.56,NNE,24,0.0,0.0,92,0.00,,---,0.14,VWS V14.01,2013-05-22 13:10:00,
2013-05-22 09:15:00,67.2,64.8,29.56,NNE,24,0.0,0.0,92,0.00,,---,0.14,VWS V14.01,2013-05-22 13:15:00,
2013-05-22 09:20:00,67.2,64.8,29.56,NNE,32,1.0,4.0,92,0.00,,---,0.14,VWS V14.01,2013-05-22 13:20:00,
2013-05-22 09:25:00,67.1,64.7,29.56,NNE,32,0.0,1.0,92,0.00,,---,0.14,VWS V14.01,2013-05-22 13:25:00,
2013-05-22 09:30:00,67.1,64.7,29.56,NNE,32,0.0,0.0,92,0.01,,---,0.15,VWS V14.01,2013-05-22 13:30:00,
2013-05-22 09:35:00,67.0,64.3,29.56,NE,49,0.0,2.0,91,0.01,,---,0.15,VWS V14.01,2013-05-22 13:35:00,
2013-05-22 09:40:00,67.0,64.3,29.56,NE,51,1.0,1.0,91,0.01,,---,0.15,VWS V14.01,2013-05-22 13:40:00,
2013-05-22 09:45:00,66.9,64.2,29.56,NE,37,1.0,3.0,91,0.01,,---,0.15,VWS V14.01,2013-05-22 13:45:00,
2013-05-22 09:50:00,66.9,64.5,29.56,SE,131,0.0,2.0,92,0.01,,---,0.15,VWS V14.01,2013-05-22 13:50:00,
2013-05-22 09:55:00,66.9,64.2,29.56,ESE,120,0.0,1.0,91,0.01,,---,0.15,VWS V14.01,2013-05-22 13:55:00,
2013-05-22 10:00:00,66.8,64.1,29.56,NNE,24,0.0,4.0,91,0.01,,---,0.15,VWS V14.01,2013-05-22 14:00:00,
2013-05-22 10:05:00,66.8,64.4,29.56,NNE,27,0.0,1.0,92,0.01,,---,0.15,VWS V14.01,2013-05-22 14:05:00,
2013-05-22 10:10:00,66.8,64.4,29.56,WSW,244,0.0,0.0,92,0.01,,---,0.15,VWS V14.01,2013-05-22 14:10:00,
2013-05-22 10:15:00,66.6,64.2,29.56,WSW,244,0.0,0.0,92,0.01,,---,0.15,VWS V14.01,2013-05-22 14:15:00,
2013-05-22 10:20:00,66.6,64.5,29.56,WSW,244,0.0,0.0,93,0.01,,---,0.15,VWS V14.01,2013-05-22 14:20:00,
2013-05-22 10:25:00,66.6,64.5,29.56,WSW,244,0.0,1.0,93,0.01,,---,0.15,VWS V14.01,2013-05-22 14:25:00,
2013-05-22 10:30:00,66.7,64.6,29.56,WNW,286,0.0,2.0,93,0.00,,---,0.15,VWS V14.01,2013-05-22 14:30:00,
2013-05-22 10:35:00,66.5,64.4,29.56,WNW,286,0.0,0.0,93,0.00,,---,0.15,VWS V14.01,2013-05-22 14:35:00,
2013-05-22 10:40:00,66.5,64.7,29.55,NW,313,0.0,0.0,94,0.00,,---,0.15,VWS V14.01,2013-05-22 14:40:00,
2013-05-22 10:45:00,66.4,64.6,29.55,NW,313,0.0,0.0,94,0.00,,---,0.15,VWS V14.01,2013-05-22 14:45:00,
2013-05-22 10:50:00,66.7,65.2,29.55,NW,313,0.0,0.0,95,0.00,,---,0.15,VWS V14.01,2013-05-22 14:50:00,
2013-05-22 10:55:00,67.1,65.6,29.55,NW,313,0.0,0.0,95,0.00,,---,0.15,VWS V14.01,2013-05-22 14:55:00,
2013-05-22 11:00:00,67.3,65.5,29.55,NW,313,0.0,1.0,94,0.00,,---,0.15,VWS V14.01,2013-05-22 15:00:00,
2013-05-22 11:05:00,67.4,65.6,29.55,NW,313,0.0,1.0,94,0.00,,---,0.15,VWS V14.01,2013-05-22 15:05:00,
2013-05-22 11:10:00,67.3,65.2,29.56,NW,313,0.0,1.0,93,0.00,,---,0.15,VWS V14.01,2013-05-22 15:10:00,
2013-05-22 11:15:00,67.4,65.3,29.56,NNE,20,0.0,1.0,93,0.00,,---,0.15,VWS V14.01,2013-05-22 15:15:00,
2013-05-22 11:20:00,67.6,65.5,29.56,NNE,16,0.0,4.0,93,0.00,,---,0.15,VWS V14.01,2013-05-22 15:20:00,
2013-05-22 11:25:00,67.8,65.7,29.56,SW,214,0.0,1.0,93,0.00,,---,0.15,VWS V14.01,2013-05-22 15:25:00,
2013-05-22 11:30:00,67.8,65.4,29.56,North,356,0.0,4.0,92,0.00,,---,0.15,VWS V14.01,2013-05-22 15:30:00,
2013-05-22 11:35:00,67.8,65.4,29.56,North,356,0.0,1.0,92,0.00,,---,0.15,VWS V14.01,2013-05-22 15:35:00,
2013-05-22 11:40:00,68.0,65.6,29.56,WNW,290,0.0,3.0,92,0.00,,---,0.15,VWS V14.01,2013-05-22 15:40:00,
2013-05-22 11:45:00,68.5,65.8,29.56,NNE,31,0.0,3.0,91,0.00,,---,0.15,VWS V14.01,2013-05-22 15:45:00,
2013-05-22 11:50:00,69.0,65.9,29.56,North,8,0.0,4.0,90,0.00,,---,0.15,VWS V14.01,2013-05-22 15:50:00,
2013-05-22 11:55:00,69.3,65.9,29.56,North,8,0.0,1.0,89,0.00,,---,0.15,VWS V14.01,2013-05-22 15:55:00,
2013-05-22 12:00:00,69.3,65.6,29.56,North,8,0.0,0.0,88,0.00,,---,0.15,VWS V14.01,2013-05-22 16:00:00,
2013-05-22 12:05:00,69.2,66.2,29.56,ESE,110,2.0,2.0,90,0.00,,---,0.15,VWS V14.01,2013-05-22 16:05:00,
2013-05-22 12:10:00,69.5,65.8,29.56,SW,221,0.0,1.0,88,0.00,,---,0.15,VWS V14.01,2013-05-22 16:10:00,
2013-05-22 12:15:00,69.9,66.2,29.56,SW,234,0.0,0.0,88,0.00,,---,0.15,VWS V14.01,2013-05-22 16:15:00,
2013-05-22 12:20:00,70.4,66.3,29.56,SW,234,0.0,2.0,87,0.00,,---,0.15,VWS V14.01,2013-05-22 16:20:00,
2013-05-22 12:25:00,71.6,67.9,29.56,SW,234,0.0,1.0,88,0.00,,---,0.15,VWS V14.01,2013-05-22 16:25:00,
2013-05-22 12:30:00,71.9,66.5,29.56,North,356,1.0,3.0,83,0.00,,---,0.15,VWS V14.01,2013-05-22 16:30:00,
2013-05-22 12:35:00,71.2,65.8,29.56,North,356,0.0,2.0,83,0.00,,---,0.15,VWS V14.01,2013-05-22 16:35:00,
2013-05-22 12:40:00,70.5,65.8,29.56,North,356,0.0,1.0,85,0.00,,---,0.15,VWS V14.01,2013-05-22 16:40:00,
2013-05-22 12:45:00,69.6,65.9,29.56,North,356,0.0,0.0,88,0.01,,---,0.16,VWS V14.01,2013-05-22 16:45:00,
2013-05-22 12:50:00,69.0,66.3,29.56,North,356,0.0,0.0,91,0.01,,---,0.16,VWS V14.01,2013-05-22 16:50:00,
2013-05-22 12:55:00,69.2,66.8,29.56,North,356,0.0,3.0,92,0.01,,---,0.16,VWS V14.01,2013-05-22 16:55:00,
2013-05-22 13:00:00,69.6,67.2,29.56,North,356,0.0,1.0,92,0.01,,---,0.16,VWS V14.01,2013-05-22 17:00:00,
2013-05-22 13:05:00,70.8,68.1,29.56,North,356,0.0,0.0,91,0.01,,---,0.16,VWS V14.01,2013-05-22 17:05:00,
2013-05-22 13:10:00,71.3,67.9,29.55,North,359,0.0,1.0,89,0.01,,---,0.16,VWS V14.01,2013-05-22 17:10:00,
2013-05-22 13:15:00,71.8,67.1,29.55,ENE,77,0.0,4.0,85,0.01,,---,0.16,VWS V14.01,2013-05-22 17:15:00,
2013-05-22 13:20:00,72.4,67.3,29.55,NE,35,0.0,7.0,84,0.01,,---,0.16,VWS V14.01,2013-05-22 17:20:00,
2013-05-22 13:25:00,72.5,66.3,29.54,NE,40,0.0,1.0,81,0.01,,---,0.16,VWS V14.01,2013-05-22 17:25:00,
2013-05-22 13:30:00,71.9,65.8,29.54,ENE,60,0.0,8.0,81,0.01,,---,0.16,VWS V14.01,2013-05-22 17:30:00,
2013-05-22 13:35:00,71.6,65.1,29.54,ESE,113,0.0,3.0,80,0.01,,---,0.16,VWS V14.01,2013-05-22 17:35:00,
2013-05-22 13:40:00,71.1,65.3,29.54,West,262,4.0,4.0,82,0.01,,---,0.16,VWS V14.01,2013-05-22 17:40:00,
2013-05-22 13:45:00,70.9,64.4,29.54,North,354,0.0,5.0,80,0.01,,---,0.16,VWS V14.01,2013-05-22 17:45:00,
2013-05-22 13:50:00,72.0,66.2,29.54,North,355,0.0,3.0,82,0.00,,---,0.16,VWS V14.01,2013-05-22 17:50:00,
2013-05-22 13:55:00,73.0,65.7,29.54,NE,45,0.0,5.0,78,0.00,,---,0.16,VWS V14.01,2013-05-22 17:55:00,
2013-05-22 14:00:00,72.5,66.0,29.54,NNE,13,0.0,2.0,80,0.00,,---,0.16,VWS V14.01,2013-05-22 18:00:00,
2013-05-22 14:05:00,72.5,66.3,29.54,NNE,17,0.0,3.0,81,0.00,,---,0.16,VWS V14.01,2013-05-22 18:05:00,
2013-05-22 14:10:00,73.4,66.1,29.54,NNE,17,0.0,3.0,78,0.00,,---,0.16,VWS V14.01,2013-05-22 18:10:00,
2013-05-22 14:15:00,74.1,65.7,29.54,East,98,0.0,1.0,75,0.00,,---,0.16,VWS V14.01,2013-05-22 18:15:00,
2013-05-22 14:20:00,74.6,66.5,29.54,WSW,251,0.0,6.0,76,0.00,,---,0.16,VWS V14.01,2013-05-22 18:20:00,
2013-05-22 14:25:00,74.3,64.7,29.53,SE,144,0.0,4.0,72,0.00,,---,0.16,VWS V14.01,2013-05-22 18:25:00,
2013-05-22 14:30:00,73.7,64.5,29.53,WNW,288,0.0,3.0,73,0.00,,---,0.16,VWS V14.01,2013-05-22 18:30:00,
2013-05-22 14:35:00,74.3,66.2,29.53,NW,322,0.0,1.0,76,0.00,,---,0.16,VWS V14.01,2013-05-22 18:35:00,
2013-05-22 14:40:00,75.3,66.8,29.53,WSW,246,0.0,3.0,75,0.00,,---,0.16,VWS V14.01,2013-05-22 18:40:00,
2013-05-22 14:45:00,75.1,64.7,29.53,WSW,244,1.0,4.0,70,0.00,,---,0.16,VWS V14.01,2013-05-22 18:45:00,
2013-05-22 14:50:00,73.5,64.3,29.53,NE,45,1.0,3.0,73,0.00,,---,0.16,VWS V14.01,2013-05-22 18:50:00,
2013-05-22 14:55:00,73.2,65.9,29.54,NE,45,0.0,1.0,78,0.00,,---,0.16,VWS V14.01,2013-05-22 18:55:00,
2013-05-22 15:00:00,74.2,64.2,29.54,SSE,159,0.0,4.0,71,0.00,,---,0.16,VWS V14.01,2013-05-22 19:00:00,
2013-05-22 15:05:00,74.4,63.6,29.54,SW,224,3.0,3.0,69,0.00,,---,0.16,VWS V14.01,2013-05-22 19:05:00,
2013-05-22 15:10:00,74.8,65.6,29.54,WSW,252,1.0,4.0,73,0.00,,---,0.16,VWS V14.01,2013-05-22 19:10:00,
2013-05-22 15:15:00,75.5,64.6,29.54,SSE,161,0.0,4.0,69,0.00,,---,0.16,VWS V14.01,2013-05-22 19:15:00,
2013-05-22 15:20:00,75.2,65.2,29.54,WNW,287,0.0,5.0,71,0.00,,---,0.16,VWS V14.01,2013-05-22 19:20:00,
2013-05-22 15:25:00,75.7,65.2,29.54,NNW,333,0.0,4.0,70,0.00,,---,0.16,VWS V14.01,2013-05-22 19:25:00,
2013-05-22 15:30:00,75.3,64.0,29.54,West,267,1.0,4.0,68,0.00,,---,0.16,VWS V14.01,2013-05-22 19:30:00,
2013-05-22 15:35:00,75.0,64.2,29.54,NNW,348,2.0,3.0,69,0.00,,---,0.16,VWS V14.01,2013-05-22 19:35:00,
2013-05-22 15:40:00,74.7,63.9,29.54,SSE,152,2.0,5.0,69,0.00,,---,0.16,VWS V14.01,2013-05-22 19:40:00,
2013-05-22 15:45:00,74.3,64.7,29.54,NW,324,0.0,3.0,72,0.00,,---,0.16,VWS V14.01,2013-05-22 19:45:00,
2013-05-22 15:50:00,74.9,64.5,29.54,West,269,2.0,4.0,70,0.00,,---,0.16,VWS V14.01,2013-05-22 19:50:00,
2013-05-22 15:55:00,73.9,63.9,29.54,NW,307,1.0,3.0,71,0.00,,---,0.16,VWS V14.01,2013-05-22 19:55:00,
2013-05-22 16:00:00,73.0,64.6,29.54,NNW,339,2.0,3.0,75,0.00,,---,0.16,VWS V14.01,2013-05-22 20:00:00,
2013-05-22 16:05:00,73.3,64.9,29.54,North,359,0.0,7.0,75,0.00,,---,0.16,VWS V14.01,2013-05-22 20:05:00,
2013-05-22 16:10:00,73.3,64.5,29.54,North,353,0.0,1.0,74,0.00,,---,0.16,VWS V14.01,2013-05-22 20:10:00,
2013-05-22 16:15:00,72.7,64.7,29.54,North,353,0.0,2.0,76,0.00,,---,0.16,VWS V14.01,2013-05-22 20:15:00,
2013-05-22 16:20:00,72.2,65.0,29.54,North,1,2.0,3.0,78,0.00,,---,0.16,VWS V14.01,2013-05-22 20:20:00,
2013-05-22 16:25:00,72.3,64.7,29.53,North,3,0.0,2.0,77,0.00,,---,0.16,VWS V14.01,2013-05-22 20:25:00,
2013-05-22 16:30:00,72.5,65.6,29.53,North,1,1.0,2.0,79,0.00,,---,0.16,VWS V14.01,2013-05-22 20:30:00,
2013-05-22 16:35:00,72.5,64.9,29.53,WNW,300,4.0,5.0,77,0.00,,---,0.16,VWS V14.01,2013-05-22 20:35:00,
2013-05-22 16:40:00,71.1,63.9,29.55,NW,321,0.0,6.0,78,0.01,,---,0.17,VWS V14.01,2013-05-22 20:40:00,
2013-05-22 16:45:00,68.3,64.0,29.55,NNE,12,0.0,2.0,86,0.07,,---,0.23,VWS V14.01,2013-05-22 20:45:00,
2013-05-22 16:50:00,66.6,63.3,29.55,WNW,289,0.0,4.0,89,0.07,,---,0.23,VWS V14.01,2013-05-22 20:50:00,
2013-05-22 16:55:00,65.9,63.2,29.56,NNW,327,0.0,4.0,91,0.09,,---,0.25,VWS V14.01,2013-05-22 20:55:00,
2013-05-22 17:00:00,65.8,63.7,29.56,North,1,0.0,1.0,93,0.09,,---,0.25,VWS V14.01,2013-05-22 21:00:00,
2013-05-22 17:05:00,65.7,63.6,29.56,North,1,0.0,1.0,93,0.09,,---,0.25,VWS V14.01,2013-05-22 21:05:00,
2013-05-22 17:10:00,65.6,63.8,29.56,North,359,1.0,1.0,94,0.09,,---,0.25,VWS V14.01,2013-05-22 21:10:00,
2013-05-22 17:15:00,65.6,63.8,29.56,North,359,0.0,4.0,94,0.09,,---,0.25,VWS V14.01,2013-05-22 21:15:00,
2013-05-22 17:20:00,66.0,64.2,29.56,NW,311,1.0,4.0,94,0.09,,---,0.25,VWS V14.01,2013-05-22 21:20:00,
2013-05-22 17:25:00,66.1,64.3,29.56,NW,311,0.0,1.0,94,0.09,,---,0.25,VWS V14.01,2013-05-22 21:25:00,
2013-05-22 17:30:00,65.7,63.6,29.56,NW,306,0.0,6.0,93,0.09,,---,0.25,VWS V14.01,2013-05-22 21:30:00,
2013-05-22 17:35:00,65.7,63.9,29.56,NW,306,0.0,1.0,94,0.09,,---,0.25,VWS V14.01,2013-05-22 21:35:00,
2013-05-22 17:40:00,65.8,64.0,29.56,NW,309,0.0,4.0,94,0.09,,---,0.25,VWS V14.01,2013-05-22 21:40:00,
2013-05-22 17:45:00,65.8,63.7,29.56,NW,309,0.0,2.0,93,0.05,,---,0.25,VWS V14.01,2013-05-22 21:45:00,
2013-05-22 17:50:00,65.7,63.6,29.56,NW,309,0.0,2.0,93,0.02,,---,0.25,VWS V14.01,2013-05-22 21:50:00,
2013-05-22 17:55:00,65.7,63.9,29.56,NW,309,0.0,1.0,94,0.01,,---,0.25,VWS V14.01,2013-05-22 21:55:00,
2013-05-22 18:00:00,65.8,63.7,29.56,NW,315,0.0,2.0,93,0.00,,---,0.25,VWS V14.01,2013-05-22 22:00:00,
2013-05-22 18:05:00,65.9,64.1,29.56,NW,315,3.0,3.0,94,0.00,,---,0.25,VWS V14.01,2013-05-22 22:05:00,
2013-05-22 18:10:00,65.9,63.8,29.56,West,281,2.0,3.0,93,0.00,,---,0.25,VWS V14.01,2013-05-22 22:10:00,
2013-05-22 18:15:00,65.8,63.4,29.56,West,281,0.0,4.0,92,0.00,,---,0.25,VWS V14.01,2013-05-22 22:15:00,
2013-05-22 18:20:00,65.9,63.8,29.56,West,269,0.0,1.0,93,0.00,,---,0.25,VWS V14.01,2013-05-22 22:20:00,
2013-05-22 18:25:00,65.9,63.8,29.55,NE,44,1.0,3.0,93,0.00,,---,0.25,VWS V14.01,2013-05-22 22:25:00,
2013-05-22 18:30:00,65.9,63.8,29.55,NE,44,0.0,1.0,93,0.00,,---,0.25,VWS V14.01,2013-05-22 22:30:00,
2013-05-22 18:35:00,66.1,64.0,29.55,SW,232,0.0,2.0,93,0.00,,---,0.25,VWS V14.01,2013-05-22 22:35:00,
2013-05-22 18:40:00,66.1,63.7,29.56,SW,232,0.0,1.0,92,0.00,,---,0.25,VWS V14.01,2013-05-22 22:40:00,
2013-05-22 18:45:00,66.0,63.6,29.56,SW,232,0.0,1.0,92,0.00,,---,0.25,VWS V14.01,2013-05-22 22:45:00,
2013-05-22 18:50:00,66.2,63.5,29.56,WNW,285,0.0,1.0,91,0.00,,---,0.25,VWS V14.01,2013-05-22 22:50:00,
2013-05-22 18:55:00,66.5,63.5,29.56,WNW,285,0.0,1.0,90,0.00,,---,0.25,VWS V14.01,2013-05-22 22:55:00,
2013-05-22 19:00:00,66.8,63.5,29.56,ENE,71,0.0,1.0,89,0.00,,---,0.25,VWS V14.01,2013-05-22 23:00:00,
2013-05-22 19:05:00,67.0,64.0,29.56,ENE,72,0.0,0.0,90,0.00,,---,0.25,VWS V14.01,2013-05-22 23:05:00,
2013-05-22 19:10:00,67.4,64.1,29.57,ENE,72,0.0,0.0,89,0.00,,---,0.25,VWS V14.01,2013-05-22 23:10:00,
2013-05-22 19:15:00,67.6,63.3,29.57,ENE,72,0.0,0.0,86,0.00,,---,0.25,VWS V14.01,2013-05-22 23:15:00,
2013-05-22 19:20:00,67.4,63.4,29.57,ENE,72,0.0,1.0,87,0.00,,---,0.25,VWS V14.01,2013-05-22 23:20:00,
2013-05-22 19:25:00,67.2,63.2,29.57,ENE,72,0.0,1.0,87,0.00,,---,0.25,VWS V14.01,2013-05-22 23:25:00,
2013-05-22 19:30:00,67.2,62.5,29.57,ENE,73,0.0,0.0,85,0.00,,---,0.25,VWS V14.01,2013-05-22 23:30:00,
2013-05-22 19:35:00,67.1,62.8,29.57,ENE,73,0.0,0.0,86,0.00,,---,0.25,VWS V14.01,2013-05-22 23:35:00,
2013-05-22 19:40:00,66.8,63.5,29.58,ENE,73,0.0,0.0,89,0.00,,---,0.25,VWS V14.01,2013-05-22 23:40:00,
2013-05-22 19:45:00,66.7,63.4,29.58,ENE,73,0.0,1.0,89,0.00,,---,0.25,VWS V14.01,2013-05-22 23:45:00,
2013-05-22 19:50:00,67.0,63.7,29.58,ENE,73,0.0,0.0,89,0.00,,---,0.25,VWS V14.01,2013-05-22 23:50:00,
2013-05-22 19:55:00,67.4,62.7,29.58,ENE,73,0.0,1.0,85,0.00,,---,0.25,VWS V14.01,2013-05-22 23:55:00,
2013-05-22 20:00:00,67.3,64.0,29.58,ENE,73,0.0,0.0,89,0.00,,---,0.25,VWS V14.01,2013-05-23 00:00:00,
2013-05-22 20:05:00,67.1,64.4,29.58,ENE,73,0.0,0.0,91,0.00,,---,0.25,VWS V14.01,2013-05-23 00:05:00,
2013-05-22 20:10:00,66.9,63.6,29.58,ENE,73,0.0,0.0,89,0.00,,---,0.25,VWS V14.01,2013-05-23 00:10:00,
2013-05-22 20:15:00,66.7,63.7,29.58,ENE,73,0.0,0.0,90,0.00,,---,0.25,VWS V14.01,2013-05-23 00:15:00,
2013-05-22 20:20:00,66.6,63.6,29.58,ENE,73,0.0,0.0,90,0.00,,---,0.25,VWS V14.01,2013-05-23 00:20:00,
2013-05-22 20:25:00,66.2,63.2,29.58,ENE,73,0.0,0.0,90,0.00,,---,0.25,VWS V14.01,2013-05-23 00:25:00,
2013-05-22 20:30:00,65.9,63.2,29.58,ENE,73,0.0,0.0,91,0.00,,---,0.25,VWS V14.01,2013-05-23 00:30:00,
2013-05-22 20:35:00,65.8,63.4,29.58,ENE,73,0.0,0.0,92,0.00,,---,0.25,VWS V14.01,2013-05-23 00:35:00,
2013-05-22 20:40:00,65.5,63.1,29.58,ENE,73,0.0,0.0,92,0.00,,---,0.25,VWS V14.01,2013-05-23 00:40:00,
2013-05-22 20:45:00,65.4,63.3,29.58,ENE,73,0.0,0.0,93,0.00,,---,0.25,VWS V14.01,2013-05-23 00:45:00,
2013-05-22 20:50:00,65.4,63.3,29.58,ENE,73,0.0,0.0,93,0.00,,---,0.25,VWS V14.01,2013-05-23 00:50:00,
2013-05-22 20:55:00,65.2,63.1,29.58,ENE,73,0.0,0.0,93,0.00,,---,0.25,VWS V14.01,2013-05-23 00:55:00,
2013-05-22 21:00:00,65.1,63.0,29.58,ENE,73,0.0,0.0,93,0.00,,---,0.25,VWS V14.01,2013-05-23 01:00:00,
2013-05-22 21:05:00,65.0,63.2,29.58,ENE,73,0.0,0.0,94,0.00,,---,0.25,VWS V14.01,2013-05-23 01:05:00,
2013-05-22 21:10:00,64.8,63.3,29.58,ENE,73,0.0,0.0,95,0.00,,---,0.25,VWS V14.01,2013-05-23 01:10:00,
2013-05-22 21:15:00,64.8,63.3,29.58,ENE,73,0.0,0.0,95,0.00,,---,0.25,VWS V14.01,2013-05-23 01:15:00,
2013-05-22 21:20:00,64.7,63.2,29.58,ENE,73,0.0,0.0,95,0.00,,---,0.25,VWS V14.01,2013-05-23 01:20:00,
2013-05-22 21:25:00,64.4,62.9,29.59,ENE,73,0.0,0.0,95,0.00,,---,0.25,VWS V14.01,2013-05-23 01:25:00,
2013-05-22 21:30:00,64.3,62.8,29.59,ENE,73,0.0,0.0,95,0.00,,---,0.25,VWS V14.01,2013-05-23 01:30:00,
2013-05-22 21:35:00,64.3,62.8,29.59,ENE,73,0.0,0.0,95,0.00,,---,0.25,VWS V14.01,2013-05-23 01:35:00,
2013-05-22 21:40:00,64.3,63.1,29.59,ENE,73,0.0,0.0,96,0.00,,---,0.25,VWS V14.01,2013-05-23 01:40:00,
2013-05-22 21:45:00,64.2,63.0,29.59,ENE,73,0.0,0.0,96,0.00,,---,0.25,VWS V14.01,2013-05-23 01:45:00,
2013-05-22 21:50:00,64.2,63.0,29.59,ENE,73,0.0,0.0,96,0.00,,---,0.25,VWS V14.01,2013-05-23 01:50:00,
2013-05-22 21:55:00,64.1,62.9,29.60,ENE,73,0.0,0.0,96,0.00,,---,0.25,VWS V14.01,2013-05-23 01:55:00,
2013-05-22 22:00:00,64.0,62.8,29.60,ENE,73,0.0,0.0,96,0.00,,---,0.25,VWS V14.01,2013-05-23 02:00:00,
2013-05-22 22:05:00,63.9,62.7,29.60,ENE,73,0.0,0.0,96,0.00,,---,0.25,VWS V14.01,2013-05-23 02:05:00,
2013-05-22 22:10:00,63.8,62.6,29.60,ENE,73,0.0,0.0,96,0.00,,---,0.25,VWS V14.01,2013-05-23 02:10:00,
2013-05-22 22:15:00,63.8,62.6,29.60,ENE,73,0.0,0.0,96,0.00,,---,0.25,VWS V14.01,2013-05-23 02:15:00,
2013-05-22 22:20:00,63.9,62.7,29.60,ENE,73,0.0,0.0,96,0.00,,---,0.25,VWS V14.01,2013-05-23 02:20:00,
2013-05-22 22:25:00,63.9,62.7,29.60,ENE,73,0.0,0.0,96,0.00,,---,0.25,VWS V14.01,2013-05-23 02:25:00,
2013-05-22 22:30:00,63.9,62.7,29.60,ENE,73,0.0,0.0,96,0.00,,---,0.25,VWS V14.01,2013-05-23 02:30:00,
2013-05-22 22:35:00,63.8,62.3,29.60,ENE,73,0.0,0.0,95,0.00,,---,0.25,VWS V14.01,2013-05-23 02:35:00,
2013-05-22 22:40:00,63.9,61.8,29.60,ENE,73,0.0,0.0,93,0.00,,---,0.25,VWS V14.01,2013-05-23 02:40:00,
2013-05-22 22:45:00,64.0,61.6,29.60,ENE,73,0.0,0.0,92,0.00,,---,0.25,VWS V14.01,2013-05-23 02:45:00,
2013-05-22 22:50:00,63.9,61.2,29.60,ENE,73,0.0,0.0,91,0.00,,---,0.25,VWS V14.01,2013-05-23 02:50:00,
2013-05-22 22:55:00,63.8,60.8,29.60,ENE,73,0.0,0.0,90,0.00,,---,0.25,VWS V14.01,2013-05-23 02:55:00,
2013-05-22 23:00:00,63.6,60.9,29.60,ENE,73,0.0,0.0,91,0.00,,---,0.25,VWS V14.01,2013-05-23 03:00:00,
2013-05-22 23:05:00,63.3,60.9,29.60,ENE,73,0.0,0.0,92,0.00,,---,0.25,VWS V14.01,2013-05-23 03:05:00,
2013-05-22 23:10:00,63.0,60.6,29.61,ENE,73,0.0,0.0,92,0.00,,---,0.25,VWS V14.01,2013-05-23 03:10:00,
2013-05-22 23:15:00,62.8,60.8,29.61,ENE,73,0.0,0.0,93,0.00,,---,0.25,VWS V14.01,2013-05-23 03:15:00,
2013-05-22 23:20:00,62.8,60.8,29.61,ENE,73,0.0,0.0,93,0.00,,---,0.25,VWS V14.01,2013-05-23 03:20:00,
2013-05-22 23:25:00,62.9,60.8,29.61,ENE,73,0.0,0.0,93,0.00,,---,0.25,VWS V14.01,2013-05-23 03:25:00,
2013-05-22 23:30:00,62.8,60.8,29.61,ENE,73,0.0,0.0,93,0.00,,---,0.25,VWS V14.01,2013-05-23 03:30:00,
2013-05-22 23:35:00,62.7,60.7,29.61,ENE,73,0.0,0.0,93,0.00,,---,0.25,VWS V14.01,2013-05-23 03:35:00,
2013-05-22 23:40:00,62.6,60.5,29.61,ENE,73,0.0,0.0,93,0.00,,---,0.25,VWS V14.01,2013-05-23 03:40:00,
2013-05-22 23:45:00,62.5,60.5,29.61,ENE,73,0.0,0.0,93,0.00,,---,0.25,VWS V14.01,2013-05-23 03:45:00,
2013-05-22 23:50:00,62.6,60.2,29.61,ENE,73,0.0,0.0,92,0.00,,---,0.25,VWS V14.01,2013-05-23 03:50:00,
2013-05-22 23:55:00,62.7,60.0,29.62,ENE,73,0.0,0.0,91,0.00,,---,0.25,VWS V14.01,2013-05-23 03:55:00,
2013-05-22 23:59:00,62.7,59.7,29.62,ENE,73,0.0,0.0,90,0.00,,---,0.25,VWS V14.01,2013-05-23 03:59:00,